Weather History for MROC - November, 2012

Change the Weather History Date:

Tuesday, November 6, 2012

  Actual Average (WUND) Record (WUND)
Temperature  
Mean Temperature 74 °F -  
Max Temperature 84 °F 78 °F - (-1)
Min Temperature 65 °F 64 °F - (-1)
Cooling Degree Days 10    
Growing Degree Days 24 (Base 50)    
Moisture  
Dew Point 64 °F    
Average Humidity 75    
Maximum Humidity 94    
Minimum Humidity 45    
Precipitation  
Precipitation 0.47 in 0.15 in - ()
Sea Level Pressure  
Sea Level Pressure 29.94 in    
Wind  
Wind Speed 5 mph ()    
Max Wind Speed 12 mph    
Max Gust Speed -    
Visibility 7.2 miles    
Events Fog , Rain , Thunderstorm    
Averages and records for this station are not official NWS values.
T = Trace of Precipitation, MM = Missing Value Source: Averaged Metar Reports

Daily Weather History Graph

Daily Weather History Graph

Search for Another Location

Airport or City:

Trip Planner

Search our weather history database for the weather conditions in past years. The results will help you decide how hot, cold, wet, or windy it might be!

Date:

Astronomy

Nov. 06, 2012 Rise Set
Actual Time 5:28 AM CST 5:12 PM CST
Civil Twilight 5:06 AM CST 5:33 PM CST
Nautical Twilight 4:41 AM CST 5:59 PM CST
Astronomical Twilight 4:16 AM CST 6:24 PM CST
Moon 11:36 PM CST (11/6) 11:29 AM CST (11/6)
Length of Visible Light 12h 27m
Length of Day
11h 43m
Waning Gibbous, 53% of the Moon is Illuminated
Nov 6
Waning Gibbous
Nov 6
Last Quarter
Nov 13
New
Nov 20
First Quarter
Nov 28
Full

Hourly Weather History & Observations

Time (CST) Temp. Heat Index Dew Point Humidity Pressure Visibility Wind Dir Wind Speed Gust Speed Precip Events Conditions
12:00 AM 69 °F - 64 °F 80% 29.80 in 12 mi NNW 2.3 mph - -   Clear
12:00 AM 68.0 °F - 64.4 °F 88% 29.98 in - NNW 2.3 mph - N/A   Clear
1:00 AM 68.0 °F - 60.8 °F 78% 29.97 in - East 5.8 mph - N/A   Clear
2:00 AM 68.0 °F - 60.8 °F 78% 29.96 in - ENE 5.8 mph - N/A   Clear
3:00 AM 66 °F - 61 °F 78% 29.79 in 12 mi NE 3.5 mph - -   Clear
3:00 AM 66.2 °F - 60.8 °F 83% 29.95 in - NE 3.5 mph - N/A   Clear
4:00 AM 68.0 °F - 60.8 °F 78% 29.93 in - ENE 5.8 mph - N/A   Clear
5:00 AM 68.0 °F - 60.8 °F 78% 29.96 in - ENE 8.1 mph - N/A   Clear
6:00 AM 67 °F - 60 °F 71% 29.83 in 12 mi ENE 5.8 mph - -   Clear
6:00 AM 68.0 °F - 59.0 °F 73% 29.98 in - ENE 5.8 mph - N/A   Clear
7:00 AM 73.4 °F - 60.8 °F 65% 30.01 in - East 4.6 mph - N/A   Clear
8:00 AM 75.2 °F - 60.8 °F 61% 30.01 in - ESE 9.2 mph - N/A   Clear
9:00 AM 77 °F - 61 °F 47% 29.83 in 12 mi East 11.5 mph - -   Scattered Clouds
9:00 AM 77.0 °F - 60.8 °F 57% 30.01 in 6.2 mi East 11.5 mph - N/A   Scattered Clouds
10:00 AM 82.4 °F 82.9 °F 60.8 °F 48% 30.00 in 6.2 mi SE 8.1 mph - N/A   Partly Cloudy
11:00 AM 82.4 °F 82.5 °F 59.0 °F 45% 29.98 in 6.2 mi ESE 5.8 mph - N/A   Scattered Clouds
11:25 AM 78.8 °F - 64.4 °F 61% 29.97 in 6.2 mi SW 5.8 mph - N/A   Scattered Clouds
12:00 PM 82 °F - 65 °F 48% 29.78 in 12 mi WSW 8.1 mph - -   Scattered Clouds
12:00 PM 82.4 °F 84.6 °F 66.2 °F 58% 29.96 in 6.2 mi WSW 8.1 mph - N/A   Scattered Clouds
1:00 PM 78.8 °F - 68.0 °F 69% 29.95 in 6.2 mi WSW 10.4 mph - N/A   Scattered Clouds
2:00 PM 80.6 °F 82.7 °F 66.2 °F 61% 29.93 in 6.2 mi WSW 9.2 mph - N/A   Scattered Clouds
3:00 PM 79 °F - 70 °F 66% 29.76 in 12 mi SW 10.4 mph - -   Overcast
3:00 PM 78.8 °F - 69.8 °F 74% 29.92 in 6.2 mi SW 10.4 mph - N/A   Scattered Clouds
4:00 PM 73.4 °F - 69.8 °F 88% 29.93 in 6.2 mi SW 10.4 mph - N/A Rain Rain Showers
5:00 PM 71.6 °F - 68.0 °F 88% 29.96 in 3.1 mi WSW 8.1 mph - N/A Rain Light Rain
5:05 PM 69.8 °F - 68.0 °F 94% 29.97 in 0.5 mi West 9.2 mph - N/A Rain , Thunderstorm Thunderstorms and Rain
5:25 PM 69.8 °F - 68.0 °F 94% 29.97 in 5.0 mi SW 8.1 mph - N/A Fog , Rain Light Rain
6:00 PM 69 °F - 66 °F 89% 29.86 in 9 mi SW 5.8 mph - -   Overcast
6:00 PM 68.0 °F - 66.2 °F 94% 29.97 in 6.2 mi SW 5.8 mph - N/A   Mostly Cloudy
7:00 PM 69.8 °F - 66.2 °F 88% 30.00 in 5.0 mi West 5.8 mph - N/A Fog , Rain Light Rain
8:00 PM 68.0 °F - 66.2 °F 94% 30.02 in 6.2 mi East 3.5 mph - N/A Rain Light Rain
9:00 PM 72 °F - 67 °F 78% 29.86 in 9 mi Calm Calm - -   Overcast
9:00 PM 69.8 °F - 66.2 °F 88% 30.04 in 6.2 mi Calm Calm - N/A   Mostly Cloudy
10:00 PM 68.0 °F - 64.4 °F 88% 30.05 in 2.5 mi East 4.6 mph - N/A Rain Rain
11:00 PM 68.0 °F - 66.2 °F 94% 30.04 in 6.2 mi ENE 3.5 mph - N/A Rain Light Rain